QPF
0.00 0.00 0.00 0.00 0.00 0.00 0.00 0.00 0.00 0.00 0.00 0.00 0.01 0.01 0.04 0.09 0.06 0.05 0.07 0.07 0.05 0.05 0.04 0.04 0.04 0.04 0.04 0.04 0.04 0.04 0.06 0.07 0.05 0.03 0.02 0.01 0.01 0.00 0.01 0.02 0.03 0.04 0.07 0.12
0.00 0.00 0.01 0.00 0.00 0.00 0.00 0.00 0.00 0.00 0.01 0.02 0.04 0.05 0.04 0.05 0.06 0.10 0.12 0.10 0.09 0.10 0.09 0.10 0.10 0.10 0.12 0.16 0.14 0.09 0.05 0.04 0.03 0.02 0.01 0.01 0.01 0.02 0.03 0.03 0.03 0.03 0.03 0.07
0.00 0.00 0.01 0.01 0.01 0.00 0.00 0.00 0.00 0.00 0.01 0.05 0.09 0.07 0.04 0.04 0.05 0.07 0.09 0.10 0.12 0.17 0.18 0.19 0.19 0.17 0.18 0.17 0.10 0.07 0.05 0.04 0.04 0.03 0.03 0.03 0.02 0.02 0.03 0.03 0.04 0.03 0.03 0.04
0.01 0.00 0.01 0.01 0.01 0.01 0.01 0.01 0.00 0.00 0.01 0.03 0.04 0.04 0.03 0.03 0.04 0.04 0.06 0.07 0.12 0.20 0.27 0.25 0.21 0.15 0.11 0.07 0.04 0.03 0.03 0.03 0.03 0.03 0.03 0.03 0.03 0.02 0.03 0.03 0.02 0.02 0.02 0.02
0.00 0.00 0.01 0.01 0.01 0.01 0.01 0.01 0.01 0.01 0.01 0.01 0.04 0.07 0.08 0.07 0.06 0.05 0.05 0.06 0.11 0.23 0.27 0.19 0.11 0.06 0.04 0.03 0.03 0.03 0.03 0.04 0.04 0.04 0.04 0.03 0.02 0.03 0.02 0.02 0.02 0.01 0.02 0.02
0.01 0.01 0.01 0.01 0.01 0.01 0.01 0.02 0.01 0.01 0.02 0.05 0.06 0.05 0.05 0.04 0.04 0.06 0.04 0.04 0.07 0.12 0.11 0.08 0.05 0.04 0.03 0.03 0.03 0.03 0.03 0.05 0.06 0.07 0.05 0.03 0.02 0.01 0.01 0.01 0.02 0.02 0.02 0.02
0.01 0.02 0.02 0.02 0.02 0.01 0.02 0.03 0.05 0.02 0.02 0.04 0.07 0.06 0.03 0.03 0.03 0.05 0.07 0.06 0.08 0.14 0.13 0.09 0.07 0.06 0.04 0.03 0.03 0.03 0.04 0.06 0.07 0.07 0.05 0.04 0.02 0.01 0.01 0.02 0.02 0.02 0.02 0.04
0.01 0.02 0.02 0.01 0.01 0.01 0.02 0.02 0.03 0.04 0.04 0.02 0.02 0.02 0.03 0.03 0.03 0.03 0.04 0.07 0.11 0.15 0.14 0.08 0.07 0.05 0.04 0.04 0.04 0.05 0.06 0.06 0.06 0.06 0.05 0.04 0.03 0.02 0.01 0.01 0.01 0.02 0.03 0.05
0.02 0.02 0.01 0.01 0.02 0.02 0.02 0.03 0.03 0.03 0.03 0.02 0.02 0.02 0.03 0.03 0.03 0.03 0.03 0.05 0.07 0.07 0.05 0.04 0.03 0.04 0.04 0.05 0.05 0.06 0.07 0.07 0.06 0.05 0.04 0.03 0.03 0.02 0.02 0.02 0.02 0.03 0.04 0.05
0.03 0.02 0.02 0.02 0.02 0.02 0.03 0.05 0.06 0.05 0.04 0.04 0.03 0.02 0.02 0.02 0.02 0.03 0.03 0.04 0.06 0.07 0.06 0.05 0.03 0.03 0.03 0.04 0.05 0.05 0.05 0.05 0.05 0.05 0.04 0.04 0.03 0.04 0.04 0.03 0.03 0.04 0.04 0.03
0.03 0.05 0.05 0.04 0.04 0.04 0.04 0.05 0.06 0.05 0.04 0.05 0.03 0.02 0.03 0.03 0.03 0.03 0.03 0.03 0.04 0.07 0.08 0.06 0.04 0.04 0.04 0.04 0.05 0.06 0.06 0.05 0.05 0.04 0.03 0.03 0.02 0.03 0.03 0.02 0.02 0.02 0.02 0.02
0.05 0.06 0.07 0.08 0.07 0.05 0.03 0.04 0.04 0.04 0.04 0.06 0.04 0.03 0.03 0.04 0.03 0.03 0.04 0.04 0.04 0.05 0.05 0.05 0.06 0.09 0.11 0.09 0.07 0.06 0.07 0.06 0.04 0.03 0.04 0.03 0.02 0.01 0.01 0.01 0.01 0.01 0.02 0.02
0.06 0.07 0.07 0.08 0.09 0.08 0.06 0.05 0.04 0.05 0.06 0.10 0.07 0.04 0.04 0.04 0.04 0.03 0.03 0.03 0.03 0.03 0.03 0.03 0.04 0.06 0.09 0.13 0.12 0.09 0.07 0.06 0.05 0.04 0.03 0.03 0.02 0.01 0.00 0.01 0.01 0.01 0.01 0.02
0.05 0.05 0.07 0.07 0.05 0.06 0.05 0.04 0.04 0.06 0.07 0.10 0.11 0.08 0.04 0.03 0.04 0.04 0.04 0.03 0.02 0.03 0.03 0.03 0.04 0.05 0.06 0.10 0.13 0.13 0.11 0.07 0.05 0.05 0.05 0.04 0.03 0.01 0.00 0.00 0.00 0.00 0.01 0.02
0.08 0.07 0.07 0.08 0.06 0.03 0.02 0.02 0.02 0.03 0.05 0.08 0.08 0.10 0.08 0.04 0.03 0.03 0.03 0.02 0.01 0.02 0.03 0.03 0.04 0.04 0.05 0.06 0.07 0.10 0.14 0.12 0.07 0.06 0.08 0.08 0.07 0.03 0.01 0.00 0.00 0.00 0.01 0.01
0.08 0.11 0.11 0.10 0.06 0.03 0.02 0.02 0.02 0.02 0.04 0.12 0.16 0.17 0.13 0.06 0.03 0.02 0.01 0.01 0.01 0.01 0.02 0.02 0.03 0.03 0.03 0.05 0.05 0.07 0.12 0.13 0.10 0.07 0.06 0.05 0.04 0.03 0.01 0.01 0.01 0.01 0.01 0.02
0.08 0.10 0.09 0.08 0.07 0.05 0.04 0.05 0.04 0.03 0.04 0.09 0.12 0.13 0.08 0.04 0.02 0.01 0.01 0.01 0.02 0.02 0.02 0.02 0.02 0.02 0.03 0.06 0.08 0.04 0.04 0.07 0.07 0.06 0.05 0.04 0.02 0.01 0.01 0.01 0.02 0.02 0.02 0.02
0.08 0.08 0.05 0.03 0.03 0.04 0.06 0.07 0.03 0.04 0.06 0.06 0.06 0.05 0.03 0.02 0.02 0.01 0.01 0.02 0.02 0.03 0.02 0.02 0.01 0.01 0.01 0.02 0.08 0.07 0.04 0.05 0.05 0.05 0.04 0.03 0.02 0.02 0.03 0.04 0.03 0.03 0.03 0.03
0.06 0.05 0.04 0.03 0.03 0.04 0.06 0.08 0.07 0.05 0.04 0.03 0.02 0.02 0.02 0.03 0.02 0.02 0.02 0.02 0.02 0.02 0.02 0.02 0.02 0.01 0.01 0.01 0.04 0.06 0.05 0.04 0.04 0.04 0.03 0.03 0.02 0.03 0.04 0.04 0.04 0.05 0.05 0.03
0.04 0.04 0.03 0.04 0.03 0.03 0.04 0.04 0.07 0.08 0.06 0.05 0.02 0.02 0.02 0.02 0.02 0.02 0.03 0.03 0.02 0.02 0.02 0.02 0.02 0.01 0.01 0.01 0.02 0.04 0.05 0.05 0.03 0.03 0.02 0.02 0.02 0.03 0.04 0.04 0.05 0.05 0.03 0.02
0.03 0.04 0.03 0.03 0.03 0.02 0.02 0.03 0.04 0.05 0.04 0.04 0.03 0.03 0.02 0.02 0.02 0.02 0.03 0.03 0.02 0.02 0.02 0.02 0.01 0.01 0.01 0.01 0.02 0.03 0.03 0.03 0.04 0.03 0.03 0.02 0.02 0.02 0.02 0.02 0.02 0.02 0.01 0.01
0.02 0.02 0.02 0.02 0.02 0.02 0.02 0.02 0.02 0.04 0.04 0.03 0.03 0.03 0.03 0.04 0.04 0.03 0.03 0.03 0.02 0.02 0.02 0.01 0.01 0.01 0.02 0.02 0.02 0.03 0.04 0.04 0.05 0.04 0.04 0.03 0.02 0.02 0.02 0.01 0.01 0.01 0.01 0.01
0.02 0.03 0.02 0.01 0.01 0.02 0.02 0.02 0.02 0.03 0.05 0.05 0.04 0.03 0.03 0.04 0.04 0.03 0.03 0.02 0.01 0.01 0.01 0.01 0.02 0.02 0.02 0.02 0.03 0.03 0.04 0.04 0.04 0.03 0.03 0.02 0.02 0.02 0.02 0.02 0.01 0.01 0.01 0.01
0.03 0.03 0.03 0.01 0.01 0.02 0.03 0.03 0.02 0.03 0.05 0.06 0.05 0.06 0.05 0.05 0.05 0.04 0.04 0.03 0.02 0.01 0.01 0.02 0.03 0.03 0.04 0.04 0.05 0.05 0.04 0.04 0.04 0.03 0.03 0.03 0.03 0.04 0.03 0.03 0.03 0.03 0.02 0.02
0.05 0.04 0.03 0.02 0.02 0.03 0.04 0.05 0.05 0.05 0.06 0.07 0.06 0.07 0.09 0.08 0.07 0.05 0.04 0.04 0.03 0.02 0.02 0.02 0.03 0.03 0.03 0.04 0.05 0.05 0.05 0.04 0.03 0.03 0.03 0.03 0.03 0.04 0.05 0.05 0.04 0.05 0.05 0.04
0.06 0.05 0.04 0.03 0.03 0.03 0.04 0.05 0.05 0.05 0.06 0.07 0.07 0.07 0.09 0.10 0.09 0.08 0.06 0.04 0.04 0.03 0.03 0.02 0.03 0.03 0.03 0.03 0.03 0.04 0.04 0.04 0.04 0.04 0.04 0.05 0.04 0.04 0.04 0.05 0.07 0.07 0.06 0.05
0.05 0.04 0.04 0.03 0.03 0.03 0.04 0.06 0.07 0.05 0.05 0.06 0.06 0.05 0.05 0.06 0.07 0.07 0.07 0.06 0.05 0.04 0.02 0.02 0.02 0.02 0.03 0.03 0.03 0.03 0.02 0.04 0.05 0.05 0.05 0.04 0.04 0.05 0.06 0.06 0.06 0.06 0.05 0.05
MSLP
1013.70 1013.80 1013.76 1013.62 1013.42 1013.20 1013.01 1012.86 1012.77 1012.75 1012.79 1012.89 1013.03 1013.18 1013.32 1013.43 1013.50 1013.51 1013.46 1013.38 1013.26 1013.15 1013.07 1013.06 1013.13 1013.29 1013.55 1013.87 1014.23 1014.57 1014.86 1015.05 1015.12 1015.05 1014.86 1014.56 1014.18 1013.77 1013.36 1012.99 1012.69 1012.48 1012.38 1012.39
1014.04 1014.03 1013.82 1013.45 1012.98 1012.50 1012.08 1011.77 1011.60 1011.60 1011.74 1012.00 1012.33 1012.69 1013.00 1013.24 1013.38 1013.39 1013.30 1013.14 1012.94 1012.76 1012.65 1012.64 1012.75 1013.00 1013.35 1013.78 1014.23 1014.64 1014.98 1015.21 1015.30 1015.25 1015.08 1014.81 1014.49 1014.15 1013.83 1013.56 1013.35 1013.23 1013.18 1013.23
1014.29 1014.20 1013.84 1013.28 1012.60 1011.91 1011.30 1010.85 1010.60 1010.57 1010.76 1011.11 1011.56 1012.04 1012.47 1012.79 1012.97 1013.00 1012.89 1012.70 1012.47 1012.28 1012.18 1012.21 1012.39 1012.72 1013.16 1013.67 1014.19 1014.66 1015.03 1015.28 1015.39 1015.37 1015.24 1015.04 1014.80 1014.57 1014.36 1014.21 1014.11 1014.08 1014.10 1014.18
1014.40 1014.22 1013.75 1013.06 1012.24 1011.41 1010.67 1010.10 1009.78 1009.71 1009.89 1010.26 1010.76 1011.29 1011.78 1012.15 1012.36 1012.42 1012.33 1012.16 1011.96 1011.81 1011.76 1011.86 1012.12 1012.52 1013.03 1013.60 1014.16 1014.66 1015.05 1015.31 1015.44 1015.45 1015.37 1015.25 1015.11 1015.00 1014.92 1014.90 1014.92 1014.98 1015.07 1015.18
1014.29 1014.04 1013.50 1012.74 1011.85 1010.94 1010.13 1009.50 1009.11 1009.00 1009.14 1009.49 1009.98 1010.51 1011.01 1011.40 1011.64 1011.74 1011.70 1011.59 1011.47 1011.41 1011.45 1011.63 1011.96 1012.43 1012.99 1013.59 1014.16 1014.66 1015.05 1015.31 1015.46 1015.51 1015.49 1015.45 1015.43 1015.44 1015.49 1015.59 1015.72 1015.86 1016.01 1016.14
1013.95 1013.63 1013.05 1012.28 1011.39 1010.48 1009.66 1009.01 1008.59 1008.44 1008.53 1008.83 1009.27 1009.77 1010.24 1010.63 1010.89 1011.04 1011.08 1011.06 1011.04 1011.08 1011.23 1011.50 1011.91 1012.42 1013.00 1013.60 1014.16 1014.65 1015.02 1015.29 1015.45 1015.54 1015.60 1015.65 1015.73 1015.86 1016.03 1016.24 1016.46 1016.67 1016.86 1017.01
1013.38 1013.02 1012.45 1011.71 1010.88 1010.03 1009.26 1008.64 1008.22 1008.04 1008.08 1008.32 1008.69 1009.11 1009.54 1009.91 1010.19 1010.38 1010.50 1010.58 1010.67 1010.83 1011.07 1011.43 1011.89 1012.43 1013.01 1013.59 1014.13 1014.58 1014.94 1015.21 1015.40 1015.54 1015.67 1015.82 1016.00 1016.23 1016.51 1016.80 1017.10 1017.36 1017.58 1017.74
1012.67 1012.29 1011.76 1011.10 1010.37 1009.63 1008.96 1008.41 1008.03 1007.83 1007.83 1007.99 1008.27 1008.62 1008.98 1009.31 1009.59 1009.81 1009.99 1010.16 1010.35 1010.59 1010.92 1011.33 1011.83 1012.37 1012.94 1013.49 1014.00 1014.43 1014.77 1015.05 1015.28 1015.48 1015.68 1015.92 1016.20 1016.53 1016.88 1017.25 1017.59 1017.89 1018.13 1018.29
1011.90 1011.53 1011.07 1010.53 1009.94 1009.35 1008.80 1008.35 1008.02 1007.83 1007.79 1007.88 1008.07 1008.32 1008.60 1008.87 1009.13 1009.35 1009.57 1009.80 1010.05 1010.36 1010.74 1011.18 1011.67 1012.21 1012.74 1013.26 1013.73 1014.13 1014.48 1014.78 1015.05 1015.32 1015.61 1015.93 1016.30 1016.70 1017.12 1017.53 1017.91 1018.24 1018.49 1018.67
1011.16 1010.84 1010.47 1010.07 1009.64 1009.22 1008.82 1008.48 1008.21 1008.05 1007.98 1008.00 1008.09 1008.24 1008.43 1008.62 1008.83 1009.03 1009.25 1009.50 1009.78 1010.11 1010.50 1010.93 1011.41 1011.90 1012.40 1012.87 1013.31 1013.70 1014.06 1014.39 1014.72 1015.05 1015.42 1015.82 1016.26 1016.72 1017.19 1017.64 1018.04 1018.38 1018.66 1018.86
1010.52 1010.26 1010.01 1009.75 1009.49 1009.23 1008.99 1008.76 1008.57 1008.43 1008.34 1008.30 1008.31 1008.37 1008.45 1008.56 1008.70 1008.85 1009.04 1009.27 1009.54 1009.85 1010.22 1010.62 1011.05 1011.49 1011.93 1012.36 1012.77 1013.15 1013.52 1013.89 1014.27 1014.67 1015.11 1015.58 1016.08 1016.58 1017.09 1017.56 1017.98 1018.34 1018.64 1018.87
1009.98 1009.80 1009.66 1009.55 1009.45 1009.34 1009.24 1009.12 1009.01 1008.90 1008.80 1008.72 1008.67 1008.63 1008.63 1008.65 1008.71 1008.81 1008.94 1009.12 1009.35 1009.62 1009.92 1010.27 1010.63 1011.01 1011.39 1011.78 1012.15 1012.53 1012.92 1013.32 1013.74 1014.20 1014.70 1015.22 1015.76 1016.30 1016.82 1017.31 1017.75 1018.14 1018.46 1018.74
1009.48 1009.39 1009.36 1009.37 1009.40 1009.44 1009.46 1009.45 1009.41 1009.34 1009.25 1009.15 1009.04 1008.95 1008.88 1008.83 1008.83 1008.86 1008.93 1009.05 1009.22 1009.42 1009.67 1009.94 1010.23 1010.54 1010.86 1011.19 1011.54 1011.90 1012.30 1012.72 1013.18 1013.68 1014.21 1014.77 1015.33 1015.90 1016.43 1016.94 1017.39 1017.80 1018.16 1018.48
1008.96 1008.94 1008.99 1009.11 1009.25 1009.40 1009.52 1009.60 1009.64 1009.62 1009.56 1009.46 1009.35 1009.23 1009.12 1009.03 1008.97 1008.95 1008.98 1009.04 1009.15 1009.29 1009.46 1009.65 1009.87 1010.11 1010.37 1010.66 1010.97 1011.32 1011.71 1012.15 1012.63 1013.15 1013.70 1014.27 1014.85 1015.41 1015.96 1016.47 1016.94 1017.37 1017.76 1018.13
1008.35 1008.37 1008.49 1008.68 1008.90 1009.13 1009.34 1009.50 1009.60 1009.65 1009.64 1009.58 1009.48 1009.37 1009.26 1009.16 1009.09 1009.05 1009.04 1009.06 1009.12 1009.20 1009.31 1009.44 1009.59 1009.76 1009.97 1010.21 1010.50 1010.83 1011.20 1011.64 1012.12 1012.64 1013.19 1013.76 1014.33 1014.90 1015.44 1015.95 1016.43 1016.88 1017.30 1017.70
1007.60 1007.65 1007.80 1008.03 1008.31 1008.60 1008.87 1009.10 1009.27 1009.38 1009.44 1009.44 1009.40 1009.33 1009.25 1009.18 1009.12 1009.08 1009.06 1009.06 1009.08 1009.13 1009.19 1009.26 1009.36 1009.49 1009.65 1009.86 1010.11 1010.42 1010.78 1011.20 1011.66 1012.17 1012.71 1013.26 1013.82 1014.37 1014.90 1015.41 1015.89 1016.35 1016.79 1017.22
1006.73 1006.79 1006.95 1007.20 1007.50 1007.83 1008.15 1008.43 1008.67 1008.85 1008.98 1009.05 1009.09 1009.09 1009.07 1009.05 1009.03 1009.01 1009.00 1009.00 1009.01 1009.03 1009.06 1009.10 1009.17 1009.26 1009.39 1009.56 1009.79 1010.08 1010.42 1010.82 1011.26 1011.75 1012.26 1012.79 1013.32 1013.85 1014.36 1014.85 1015.32 1015.78 1016.23 1016.67
1005.83 1005.88 1006.04 1006.29 1006.60 1006.94 1007.28 1007.60 1007.89 1008.13 1008.33 1008.48 1008.59 1008.67 1008.73 1008.77 1008.80 1008.82 1008.83 1008.84 1008.85 1008.86 1008.88 1008.90 1008.95 1009.02 1009.13 1009.29 1009.51 1009.78 1010.10 1010.48 1010.90 1011.36 1011.84 1012.34 1012.83 1013.32 1013.81 1014.27 1014.73 1015.18 1015.62 1016.05
1004.99 1005.04 1005.19 1005.42 1005.72 1006.06 1006.40 1006.74 1007.06 1007.35 1007.60 1007.81 1007.99 1008.13 1008.26 1008.35 1008.43 1008.49 1008.53 1008.56 1008.58 1008.59 1008.60 1008.62 1008.66 1008.73 1008.84 1009.00 1009.20 1009.47 1009.78 1010.14 1010.54 1010.97 1011.42 1011.88 1012.33 1012.78 1013.23 1013.66 1014.09 1014.52 1014.94 1015.36
1004.34 1004.38 1004.52 1004.74 1005.02 1005.33 1005.66 1005.99 1006.31 1006.61 1006.89 1007.13 1007.36 1007.55 1007.71 1007.85 1007.97 1008.05 1008.12 1008.16 1008.18 1008.20 1008.22 1008.24 1008.28 1008.36 1008.47 1008.63 1008.85 1009.11 1009.41 1009.76 1010.14 1010.54 1010.96 1011.37 1011.79 1012.20 1012.61 1013.00 1013.40 1013.79 1014.19 1014.59
1003.93 1003.99 1004.12 1004.32 1004.56 1004.84 1005.13 1005.43 1005.72 1006.01 1006.28 1006.53 1006.76 1006.97 1007.15 1007.31 1007.43 1007.53 1007.60 1007.64 1007.67 1007.69 1007.71 1007.74 1007.79 1007.88 1008.00 1008.17 1008.39 1008.66 1008.96 1009.30 1009.66 1010.04 1010.42 1010.80 1011.18 1011.55 1011.92 1012.28 1012.64 1013.01 1013.38 1013.76
1003.79 1003.87 1004.00 1004.17 1004.38 1004.61 1004.85 1005.09 1005.33 1005.57 1005.80 1006.03 1006.23 1006.42 1006.59 1006.74 1006.85 1006.94 1007.00 1007.04 1007.06 1007.07 1007.09 1007.12 1007.18 1007.28 1007.41 1007.60 1007.82 1008.09 1008.40 1008.73 1009.08 1009.43 1009.79 1010.14 1010.49 1010.82 1011.15 1011.49 1011.82 1012.17 1012.53 1012.89
1003.85 1003.95 1004.09 1004.24 1004.40 1004.58 1004.75 1004.92 1005.10 1005.27 1005.45 1005.61 1005.77 1005.92 1006.05 1006.16 1006.25 1006.30 1006.34 1006.36 1006.36 1006.36 1006.37 1006.40 1006.46 1006.56 1006.70 1006.89 1007.12 1007.40 1007.70 1008.02 1008.36 1008.70 1009.04 1009.37 1009.69 1010.01 1010.32 1010.64 1010.96 1011.30 1011.65 1012.03
1004.02 1004.14 1004.27 1004.41 1004.53 1004.64 1004.75 1004.85 1004.95 1005.05 1005.15 1005.25 1005.34 1005.43 1005.51 1005.57 1005.61 1005.63 1005.63 1005.61 1005.59 1005.57 1005.56 1005.58 1005.63 1005.72 1005.87 1006.05 1006.29 1006.56 1006.86 1007.18 1007.51 1007.84 1008.17 1008.50 1008.81 1009.12 1009.43 1009.75 1010.08 1010.43 1010.80 1011.20
1004.16 1004.30 1004.43 1004.54 1004.62 1004.69 1004.73 1004.76 1004.79 1004.82 1004.84 1004.87 1004.90 1004.93 1004.94 1004.95 1004.94 1004.91 1004.87 1004.81 1004.75 1004.71 1004.67 1004.67 1004.71 1004.79 1004.92 1005.10 1005.32 1005.59 1005.89 1006.21 1006.54 1006.87 1007.21 1007.54 1007.86 1008.19 1008.52 1008.86 1009.22 1009.60 1010.00 1010.43
1004.17 1004.32 1004.44 1004.53 1004.58 1004.60 1004.59 1004.57 1004.54 1004.50 1004.47 1004.44 1004.40 1004.37 1004.33 1004.28 1004.21 1004.14 1004.05 1003.95 1003.86 1003.78 1003.72 1003.69 1003.70 1003.76 1003.87 1004.04 1004.26 1004.52 1004.81 1005.13 1005.47 1005.82 1006.18 1006.53 1006.89 1007.25 1007.62 1008.00 1008.41 1008.83 1009.28 1009.75
1003.97 1004.11 1004.22 1004.29 1004.32 1004.31 1004.27 1004.21 1004.14 1004.06 1003.98 1003.89 1003.81 1003.73 1003.64 1003.54 1003.42 1003.30 1003.17 1003.04 1002.91 1002.79 1002.70 1002.64 1002.63 1002.67 1002.77 1002.92 1003.13 1003.39 1003.69 1004.02 1004.37 1004.75 1005.13 1005.53 1005.93 1006.35 1006.77 1007.21 1007.67 1008.15 1008.65 1009.17
Thickness
5749 5761 5768 5770 5774 5779 5771 5760 5753 5760 5768 5781 5790 5796 5799 5802 5803 5803 5802 5802 5800 5797 5797 5797 5795 5793 5790 5787 5785 5783 5778 5774 5771 5769 5767 5765 5762 5760 5758 5757 5755 5753 5751 5750
5742 5759 5763 5764 5772 5776 5776 5773 5769 5768 5769 5788 5793 5794 5794 5796 5797 5795 5795 5796 5795 5794 5793 5791 5791 5788 5786 5782 5778 5777 5773 5771 5768 5766 5764 5761 5759 5757 5755 5753 5751 5750 5747 5745
5718 5741 5747 5740 5761 5769 5771 5775 5772 5762 5770 5782 5782 5785 5787 5790 5793 5791 5791 5792 5791 5791 5789 5788 5787 5785 5782 5779 5776 5773 5769 5766 5764 5762 5760 5758 5756 5753 5750 5748 5746 5744 5742 5740
5708 5720 5710 5739 5771 5776 5770 5772 5777 5776 5778 5783 5784 5784 5787 5790 5790 5789 5788 5786 5786 5786 5784 5783 5782 5780 5777 5772 5769 5767 5765 5763 5760 5757 5755 5753 5751 5748 5746 5743 5741 5739 5737 5735
5694 5698 5712 5741 5764 5768 5761 5756 5772 5772 5775 5778 5782 5777 5775 5785 5789 5785 5784 5783 5782 5782 5781 5778 5776 5774 5771 5766 5763 5761 5759 5758 5756 5753 5750 5748 5745 5743 5741 5738 5735 5733 5730 5728
5691 5693 5696 5727 5760 5773 5762 5741 5767 5770 5770 5772 5772 5755 5760 5777 5781 5780 5779 5778 5777 5776 5773 5771 5770 5768 5764 5758 5756 5755 5754 5753 5751 5749 5745 5742 5740 5738 5736 5733 5730 5727 5724 5722
5686 5689 5703 5737 5757 5763 5732 5734 5761 5766 5767 5768 5765 5766 5770 5774 5774 5774 5773 5771 5771 5768 5764 5762 5762 5760 5755 5753 5750 5751 5750 5747 5745 5742 5740 5737 5734 5732 5729 5726 5723 5720 5716 5715
5679 5680 5695 5739 5745 5738 5738 5753 5758 5760 5762 5762 5763 5765 5766 5766 5765 5765 5763 5763 5761 5758 5753 5754 5754 5751 5746 5743 5743 5744 5743 5740 5737 5734 5733 5731 5727 5724 5722 5719 5715 5712 5709 5707
5688 5694 5717 5733 5738 5745 5748 5747 5751 5752 5755 5756 5754 5754 5755 5755 5754 5754 5754 5752 5750 5748 5745 5744 5745 5744 5738 5737 5738 5737 5734 5731 5728 5726 5724 5722 5720 5716 5713 5710 5707 5704 5701 5699
5690 5702 5715 5724 5732 5737 5742 5743 5747 5750 5750 5749 5745 5745 5745 5745 5744 5744 5744 5742 5741 5739 5736 5733 5734 5735 5733 5732 5730 5729 5725 5722 5720 5717 5714 5712 5710 5708 5704 5701 5698 5696 5694 5692
5682 5695 5703 5710 5717 5725 5732 5735 5738 5740 5741 5741 5740 5737 5736 5735 5735 5735 5733 5733 5733 5731 5728 5727 5727 5726 5725 5724 5724 5720 5717 5714 5711 5708 5705 5702 5699 5696 5695 5693 5691 5690 5688 5686
5674 5687 5689 5695 5708 5717 5720 5722 5724 5727 5728 5731 5732 5729 5728 5726 5726 5726 5724 5723 5722 5722 5720 5719 5719 5718 5717 5717 5715 5711 5708 5706 5704 5700 5697 5694 5690 5686 5685 5684 5684 5684 5683 5681
5682 5688 5691 5697 5703 5708 5710 5713 5715 5717 5718 5719 5721 5722 5720 5717 5717 5716 5716 5715 5714 5714 5713 5712 5711 5710 5710 5709 5706 5704 5701 5699 5696 5693 5690 5685 5682 5680 5677 5675 5675 5675 5674 5673
5682 5684 5683 5688 5692 5698 5701 5704 5706 5706 5708 5711 5711 5712 5711 5709 5708 5707 5706 5707 5707 5706 5705 5704 5703 5702 5703 5701 5698 5696 5694 5693 5690 5688 5684 5681 5677 5674 5672 5669 5667 5665 5665 5664
5673 5676 5677 5682 5685 5688 5691 5693 5692 5691 5695 5697 5700 5701 5700 5699 5698 5699 5699 5700 5699 5697 5695 5695 5694 5694 5695 5693 5690 5688 5686 5684 5683 5681 5678 5675 5671 5667 5665 5663 5660 5657 5656 5655
5663 5667 5670 5671 5673 5677 5680 5681 5680 5681 5684 5687 5688 5690 5691 5691 5690 5690 5690 5690 5688 5687 5686 5686 5685 5686 5686 5684 5681 5680 5678 5678 5676 5673 5670 5668 5664 5661 5658 5655 5653 5651 5649 5648
5651 5651 5654 5656 5660 5664 5667 5670 5671 5673 5675 5677 5679 5680 5681 5680 5679 5679 5680 5680 5680 5680 5679 5678 5678 5678 5677 5676 5674 5672 5671 5670 5669 5667 5664 5661 5658 5655 5652 5649 5647 5645 5644 5643
5647 5650 5651 5653 5653 5655 5658 5662 5664 5666 5666 5669 5670 5670 5670 5669 5668 5669 5670 5670 5670 5669 5670 5670 5670 5669 5669 5668 5667 5665 5663 5661 5660 5658 5656 5654 5652 5650 5647 5644 5642 5639 5637 5635
5640 5642 5645 5648 5650 5650 5652 5654 5657 5658 5660 5661 5661 5660 5660 5660 5660 5660 5661 5660 5659 5658 5660 5662 5662 5661 5660 5660 5660 5658 5656 5654 5652 5651 5650 5648 5645 5643 5641 5639 5636 5634 5632 5629
5632 5635 5637 5639 5642 5643 5645 5648 5649 5648 5649 5651 5651 5650 5649 5650 5650 5650 5650 5649 5651 5652 5653 5653 5653 5652 5652 5652 5652 5650 5648 5647 5645 5644 5642 5640 5638 5636 5635 5633 5630 5628 5626 5623
5624 5626 5628 5629 5632 5635 5637 5639 5639 5639 5640 5641 5641 5641 5641 5641 5641 5641 5640 5639 5642 5643 5644 5644 5645 5644 5644 5643 5643 5641 5641 5640 5638 5637 5635 5633 5631 5629 5627 5626 5624 5622 5620 5617
5614 5616 5618 5620 5622 5624 5626 5628 5629 5629 5630 5631 5632 5633 5633 5632 5632 5632 5633 5633 5635 5635 5635 5636 5637 5637 5637 5636 5634 5634 5633 5632 5631 5629 5628 5626 5623 5621 5620 5620 5618 5616 5614 5612
5605 5607 5609 5611 5613 5615 5617 5619 5619 5620 5620 5622 5623 5625 5625 5625 5625 5624 5624 5627 5628 5628 5628 5628 5629 5630 5629 5628 5627 5626 5626 5625 5624 5622 5621 5619 5617 5616 5614 5614 5612 5611 5608 5606
5598 5600 5601 5603 5605 5606 5607 5610 5612 5613 5614 5615 5616 5617 5617 5616 5616 5618 5619 5620 5620 5620 5620 5620 5620 5620 5620 5619 5619 5618 5618 5618 5617 5616 5615 5613 5612 5610 5609 5608 5606 5604 5602 5600
5593 5594 5595 5596 5597 5598 5600 5602 5604 5605 5606 5606 5607 5609 5610 5610 5610 5610 5611 5612 5611 5611 5611 5612 5612 5612 5612 5612 5612 5611 5611 5611 5610 5609 5608 5607 5606 5604 5603 5602 5600 5598 5595 5592
5587 5588 5589 5591 5593 5594 5595 5596 5595 5596 5597 5598 5599 5601 5602 5603 5603 5603 5604 5604 5604 5604 5604 5604 5605 5605 5605 5605 5605 5605 5605 5604 5604 5603 5601 5600 5599 5597 5596 5595 5593 5590 5587 5584
5583 5584 5584 5586 5588 5589 5590 5590 5589 5590 5590 5591 5592 5594 5595 5595 5595 5596 5597 5597 5597 5598 5598 5598 5599 5599 5600 5599 5599 5599 5598 5598 5597 5596 5594 5592 5591 5590 5589 5587 5585 5582 5579 5576